| time (UTC) | temp F | wind direction | speed MPH | gust MPH | rain 1hr in | rain 24hr in | rain mn in | humidity % | barometer mb |
| 20260901085105 | 64 | 128 | 0.0 | 0.0 | 0.00 | 0.00 | 0.00 | 91 | 1015.7 |
| 20260901084605 | 64 | 175 | 0.0 | 0.0 | 0.00 | 0.00 | 0.00 | 91 | 1015.9 |
| 20260901083606 | 64 | 156 | 0.0 | 1.0 | 0.00 | 0.00 | 0.00 | 91 | 1016.0 |
| 20260901083105 | 64 | 153 | 0.0 | 1.0 | 0.00 | 0.00 | 0.00 | 92 | 1016.0 |
| 20260901082605 | 64 | 84 | 0.0 | 1.0 | 0.00 | 0.00 | 0.00 | 92 | 1016.0 |
| 20260901082105 | 64 | 187 | 0.0 | 1.0 | 0.00 | 0.00 | 0.00 | 92 | 1016.0 |
| 20260901081605 | 64 | 169 | 0.0 | 1.0 | 0.00 | 0.00 | 0.00 | 92 | 1016.1 |
| 20260901081105 | 64 | 162 | 0.0 | 1.0 | 0.00 | 0.00 | 0.00 | 92 | 1016.1 |
| 20260901080605 | 64 | 158 | 0.0 | 1.0 | 0.00 | 0.00 | 0.00 | 92 | 1016.3 |
| 20260901080105 | 65 | 146 | 0.0 | 0.0 | 0.00 | 0.00 | 0.00 | 92 | 1016.5 |
| 20260901075605 | 65 | 146 | 0.0 | 0.0 | 0.00 | 0.00 | 0.00 | 91 | 1016.4 |
| 20260901075105 | 65 | 145 | 0.0 | 0.0 | 0.00 | 0.00 | 0.00 | 91 | 1016.4 |
| 20260901073605 | 65 | 134 | 0.0 | 0.0 | 0.00 | 0.00 | 0.00 | 88 | 1016.6 |
| 20260901073105 | 65 | 152 | 0.0 | 0.0 | 0.00 | 0.00 | 0.00 | 88 | 1016.6 |
| 20260901072604 | 65 | 116 | 0.0 | 0.0 | 0.00 | 0.00 | 0.00 | 87 | 1016.6 |
| 20260901072105 | 65 | 107 | 0.0 | 0.0 | 0.00 | 0.00 | 0.00 | 87 | 1016.6 |
| 20260901071605 | 65 | 70 | 0.0 | 1.0 | 0.00 | 0.00 | 0.00 | 88 | 1016.5 |
| 20260901070605 | 65 | 108 | 0.0 | 2.0 | 0.00 | 0.00 | 0.00 | 88 | 1016.5 |
| 20260901070105 | 65 | 125 | 0.0 | 1.0 | 0.00 | 0.00 | 0.00 | 88 | 1016.4 |
| 20260901065605 | 65 | 167 | 0.0 | 1.0 | 0.00 | 0.00 | 0.00 | 88 | 1016.4 |
| 20260901064605 | 65 | 172 | 0.0 | 2.0 | 0.00 | 0.00 | 0.00 | 87 | 1016.4 |
| 20260901064105 | 65 | 158 | 0.0 | 0.0 | 0.00 | 0.00 | 0.00 | 87 | 1016.5 |
| 20260901063605 | 65 | 132 | 0.0 | 0.0 | 0.00 | 0.00 | 0.00 | 87 | 1016.5 |
| 20260901063105 | 65 | 146 | 0.0 | 1.0 | 0.00 | 0.00 | 0.00 | 87 | 1016.5 |
| 20260901062604 | 65 | 210 | 0.0 | 1.0 | 0.00 | 0.00 | 0.00 | 87 | 1016.8 |
| 20260901062105 | 65 | 201 | 0.0 | 1.0 | 0.00 | 0.00 | 0.00 | 87 | 1016.8 |
| 20260901061604 | 65 | 205 | 0.0 | 0.0 | 0.00 | 0.00 | 0.00 | 87 | 1016.8 |
| 20260901061104 | 65 | 160 | 0.0 | 1.0 | 0.00 | 0.00 | 0.00 | 86 | 1016.7 |
| 20260901060605 | 65 | 171 | 0.0 | 1.0 | 0.00 | 0.00 | 0.00 | 86 | 1016.5 |
| 20260901060104 | 65 | 67 | 0.0 | 1.0 | 0.00 | 0.00 | 0.00 | 86 | 1016.7 |
| 20260901055605 | 65 | 215 | 0.0 | 1.0 | 0.00 | 0.00 | 0.00 | 86 | 1016.5 |
| 20260901055105 | 65 | 169 | 1.0 | 2.0 | 0.00 | 0.00 | 0.00 | 86 | 1016.5 |
| 20260901054605 | 65 | 183 | 1.0 | 2.0 | 0.00 | 0.00 | 0.00 | 86 | 1016.5 |
| 20260901054105 | 65 | 143 | 1.0 | 1.0 | 0.00 | 0.00 | 0.00 | 86 | 1016.5 |
| 20260901053605 | 65 | 137 | 0.0 | 1.0 | 0.00 | 0.00 | 0.00 | 85 | 1016.5 |
| 20260901053104 | 65 | 184 | 0.0 | 1.0 | 0.00 | 0.00 | 0.00 | 86 | 1016.7 |
| 20260901052105 | 65 | 143 | 0.0 | 1.0 | 0.00 | 0.00 | 0.00 | 85 | 1016.6 |
| 20260901051105 | 66 | 113 | 0.0 | 1.0 | 0.00 | 0.00 | 0.00 | 85 | 1016.9 |
| 20260901050605 | 65 | 100 | 1.0 | 1.0 | 0.00 | 0.00 | 0.00 | 84 | 1016.9 |
| 20260901050104 | 66 | 199 | 0.0 | 1.0 | 0.00 | 0.00 | 0.00 | 84 | 1017.1 |
| 20260901045605 | 66 | 174 | 0.0 | 1.0 | 0.00 | 0.00 | 0.00 | 83 | 1016.9 |
| 20260901045104 | 66 | 68 | 1.0 | 2.0 | 0.00 | 0.00 | 0.00 | 83 | 1016.8 |
| 20260901044104 | 66 | 239 | 1.0 | 2.0 | 0.00 | 0.00 | 0.00 | 83 | 1016.6 |
| 20260901043604 | 66 | 206 | 1.0 | 2.0 | 0.00 | 0.00 | 0.00 | 83 | 1016.8 |
| 20260901043105 | 66 | 184 | 0.0 | 2.0 | 0.00 | 0.00 | 0.00 | 82 | 1016.9 |
| 20260901042604 | 66 | 197 | 0.0 | 1.0 | 0.00 | 0.00 | 0.00 | 82 | 1017.0 |
| 20260901042104 | 66 | 142 | 1.0 | 2.0 | 0.00 | 0.00 | 0.00 | 81 | 1016.8 |
| 20260901041604 | 66 | 168 | 0.0 | 2.0 | 0.00 | 0.00 | 0.00 | 82 | 1016.8 |
| 20260901041106 | 66 | 208 | 1.0 | 1.0 | 0.00 | 0.00 | 0.00 | 82 | 1016.9 |
| 20260901040605 | 66 | 70 | 0.0 | 2.0 | 0.00 | 0.00 | 0.00 | 81 | 1017.0 |
| 20260901040104 | 66 | 237 | 0.0 | 2.0 | 0.00 | 0.00 | 0.00 | 81 | 1017.0 |
| 20260901035604 | 66 | 224 | 1.0 | 2.0 | 0.00 | 0.00 | 0.00 | 84 | 1017.0 |
| 20260901034104 | 66 | 181 | 1.0 | 2.0 | 0.00 | 0.02 | 0.00 | 81 | 1017.1 |
| 20260901033604 | 66 | 228 | 1.0 | 2.0 | 0.00 | 0.02 | 0.00 | 80 | 1017.0 |
| 20260901033104 | 66 | 203 | 1.0 | 2.0 | 0.00 | 0.02 | 0.00 | 81 | 1017.1 |
| 20260901032104 | 66 | 175 | 0.0 | 3.0 | 0.00 | 0.02 | 0.00 | 80 | 1017.0 |
| 20260901031604 | 66 | 182 | 1.0 | 2.0 | 0.00 | 0.02 | 0.00 | 80 | 1017.0 |
| 20260901031105 | 66 | 120 | 0.0 | 3.0 | 0.00 | 0.02 | 0.00 | 79 | 1017.1 |
| 20260901030604 | 66 | 139 | 0.0 | 2.0 | 0.00 | 0.02 | 0.00 | 79 | 1017.1 |
| 20260901030104 | 66 | 168 | 1.0 | 2.0 | 0.00 | 0.04 | 0.00 | 79 | 1017.0 |
| 20260901025604 | 66 | 85 | 1.0 | 2.0 | 0.00 | 0.14 | 0.00 | 79 | 1016.9 |
| 20260901024604 | 66 | 168 | 1.0 | 2.0 | 0.00 | 0.31 | 0.00 | 77 | 1016.9 |
| 20260901024104 | 66 | 145 | 1.0 | 3.0 | 0.00 | 0.35 | 0.00 | 78 | 1016.9 |
| 20260901023604 | 66 | 82 | 1.0 | 3.0 | 0.00 | 0.37 | 0.00 | 79 | 1016.9 |
| 20260901023104 | 66 | 245 | 1.0 | 5.0 | 0.00 | 0.37 | 0.00 | 79 | 1017.1 |
| 20260901022104 | 67 | 255 | 1.0 | 5.0 | 0.00 | 0.37 | 0.00 | 81 | 1016.9 |
| 20260901021604 | 67 | 204 | 1.0 | 2.0 | 0.00 | 0.37 | 0.00 | 84 | 1017.1 |
| 20260901021104 | 67 | 171 | 0.0 | 1.0 | 0.00 | 0.37 | 0.00 | 85 | 1016.9 |
| 20260901020604 | 67 | 169 | 0.0 | 1.0 | 0.00 | 0.37 | 0.00 | 85 | 1017.1 |
| 20260901020104 | 67 | 199 | 1.0 | 2.0 | 0.00 | 0.37 | 0.00 | 85 | 1017.1 |
| 20260901015604 | 67 | 95 | 1.0 | 2.0 | 0.00 | 0.37 | 0.00 | 85 | 1017.1 |
| 20260901015104 | 67 | 191 | 0.0 | 2.0 | 0.00 | 0.37 | 0.00 | 86 | 1017.1 |
| 20260901014604 | 67 | 159 | 0.0 | 1.0 | 0.00 | 0.37 | 0.00 | 86 | 1017.1 |
| 20260901014104 | 67 | 114 | 0.0 | 5.0 | 0.00 | 0.37 | 0.00 | 85 | 1017.1 |
| 20260901013604 | 67 | 109 | 1.0 | 1.0 | 0.00 | 0.37 | 0.00 | 85 | 1017.1 |
| 20260901013104 | 67 | 146 | 0.0 | 2.0 | 0.00 | 0.37 | 0.00 | 86 | 1017.1 |
| 20260901012603 | 67 | 181 | 0.0 | 1.0 | 0.00 | 0.37 | 0.00 | 87 | 1017.2 |
| 20260901012104 | 67 | 215 | 1.0 | 2.0 | 0.00 | 0.37 | 0.00 | 86 | 1017.2 |
| 20260901011604 | 67 | 220 | 1.0 | 3.0 | 0.00 | 0.37 | 0.00 | 85 | 1017.2 |
| 20260901011104 | 67 | 123 | 0.0 | 2.0 | 0.00 | 0.37 | 0.00 | 85 | 1017.2 |
| 20260901010604 | 67 | 152 | 1.0 | 2.0 | 0.00 | 0.37 | 0.00 | 86 | 1017.2 |
| 20260901010103 | 68 | 103 | 1.0 | 2.0 | 0.00 | 0.37 | 0.00 | 85 | 1017.2 |
| 20260901005604 | 68 | 240 | 1.0 | 2.0 | 0.00 | 0.37 | 0.00 | 85 | 1017.2 |
| 20260901005104 | 68 | 119 | 0.0 | 2.0 | 0.00 | 0.37 | 0.00 | 84 | 1017.0 |
| 20260901004604 | 68 | 121 | 1.0 | 2.0 | 0.00 | 0.37 | 0.00 | 84 | 1017.0 |
| 20260901004104 | 68 | 40 | 0.0 | 1.0 | 0.00 | 0.37 | 0.00 | 83 | 1016.9 |
| 20260901003604 | 68 | 124 | 1.0 | 3.0 | 0.00 | 0.37 | 0.00 | 81 | 1016.9 |
| 20260901003104 | 68 | 143 | 0.0 | 1.0 | 0.00 | 0.37 | 0.00 | 81 | 1016.9 |
| 20260901002603 | 68 | 145 | 1.0 | 1.0 | 0.00 | 0.37 | 0.00 | 80 | 1016.8 |
| 20260901002104 | 68 | 134 | 0.0 | 1.0 | 0.00 | 0.37 | 0.00 | 80 | 1016.9 |
| 20260901001603 | 69 | 105 | 0.0 | 1.0 | 0.00 | 0.37 | 0.00 | 79 | 1016.9 |
| 20260901001104 | 69 | 121 | 1.0 | 2.0 | 0.00 | 0.37 | 0.00 | 78 | 1016.9 |
| 20260901000103 | 69 | 173 | 0.0 | 1.0 | 0.00 | 0.37 | 0.00 | 76 | 1016.9 |
| 20260831235604 | 69 | 10 | 0.0 | 1.0 | 0.00 | 0.37 | 0.00 | 76 | 1016.9 |
| 20260831234603 | 69 | 124 | 0.0 | 1.0 | 0.00 | 0.37 | 0.00 | 74 | 1017.0 |
| 20260831234104 | 70 | 120 | 0.0 | 1.0 | 0.00 | 0.37 | 0.00 | 74 | 1016.9 |
| 20260831233604 | 70 | 163 | 0.0 | 1.0 | 0.00 | 0.37 | 0.00 | 73 | 1016.9 |
| 20260831233103 | 70 | 222 | 0.0 | 2.0 | 0.00 | 0.37 | 0.00 | 71 | 1017.0 |
| 20260831232604 | 70 | 184 | 0.0 | 1.0 | 0.00 | 0.37 | 0.00 | 72 | 1017.0 |
| 20260831232103 | 71 | 247 | 0.0 | 1.0 | 0.00 | 0.37 | 0.00 | 70 | 1017.1 |
| 20260831231603 | 71 | 117 | 1.0 | 1.0 | 0.00 | 0.37 | 0.00 | 71 | 1017.1 |
| 20260831231104 | 71 | 172 | 0.0 | 1.0 | 0.00 | 0.37 | 0.00 | 69 | 1017.1 |
| 20260831230603 | 71 | 173 | 0.0 | 1.0 | 0.00 | 0.37 | 0.00 | 69 | 1017.0 |
| 20260831230104 | 71 | 169 | 1.0 | 2.0 | 0.00 | 0.37 | 0.00 | 69 | 1017.2 |
| 20260831225604 | 72 | 80 | 1.0 | 3.0 | 0.00 | 0.37 | 0.00 | 68 | 1017.2 |
| 20260831224603 | 72 | 135 | 0.0 | 1.0 | 0.00 | 0.37 | 0.00 | 67 | 1017.1 |
| 20260831224104 | 72 | 107 | 0.0 | 0.0 | 0.00 | 0.37 | 0.00 | 64 | 1017.1 |
| 20260831223603 | 72 | 123 | 0.0 | 1.0 | 0.00 | 0.37 | 0.00 | 64 | 1017.1 |
| 20260831223105 | 72 | 119 | 0.0 | 0.0 | 0.00 | 0.37 | 0.00 | 62 | 1017.0 |
| 20260831222604 | 73 | 157 | 0.0 | 0.0 | 0.00 | 0.37 | 0.00 | 62 | 1017.0 |
| 20260831221604 | 73 | 92 | 0.0 | 1.0 | 0.00 | 0.37 | 0.00 | 61 | 1017.2 |
| 20260831220603 | 73 | 206 | 0.0 | 1.0 | 0.00 | 0.37 | 0.00 | 60 | 1017.2 |
| 20260831215603 | 73 | 170 | 0.0 | 1.0 | 0.00 | 0.37 | 0.00 | 58 | 1017.2 |
| 20260831214603 | 74 | 198 | 0.0 | 0.0 | 0.00 | 0.37 | 0.00 | 59 | 1017.2 |
| 20260831214104 | 74 | 172 | 0.0 | 0.0 | 0.00 | 0.37 | 0.00 | 58 | 1017.2 |
| 20260831213603 | 74 | 156 | 0.0 | 2.0 | 0.00 | 0.37 | 0.00 | 55 | 1017.3 |
| 20260831212603 | 74 | 238 | 0.0 | 0.0 | 0.00 | 0.37 | 0.00 | 55 | 1017.2 |
| 20260831212103 | 75 | 272 | 0.0 | 0.0 | 0.00 | 0.37 | 0.00 | 53 | 1017.2 |
| 20260831211603 | 75 | 262 | 0.0 | 2.0 | 0.00 | 0.37 | 0.00 | 58 | 1017.0 |
| 20260831211103 | 75 | 59 | 0.0 | 1.0 | 0.00 | 0.37 | 0.00 | 54 | 1017.2 |
| 20260831210604 | 75 | 126 | 0.0 | 1.0 | 0.00 | 0.37 | 0.00 | 52 | 1017.3 |
| 20260831210104 | 75 | 250 | 0.0 | 2.0 | 0.00 | 0.37 | 0.00 | 52 | 1017.2 |
| 20260831205603 | 74 | 245 | 0.0 | 0.0 | 0.00 | 0.37 | 0.00 | 52 | 1017.2 |
| 20260831205103 | 75 | 330 | 0.0 | 1.0 | 0.00 | 0.37 | 0.00 | 57 | 1017.3 |
| 20260831204603 | 75 | 216 | 0.0 | 2.0 | 0.00 | 0.37 | 0.00 | 57 | 1017.5 |
| 20260831204103 | 76 | 159 | 0.0 | 1.0 | 0.00 | 0.37 | 0.00 | 54 | 1017.5 |
| 20260831203603 | 77 | 283 | 0.0 | 2.0 | 0.00 | 0.37 | 0.00 | 49 | 1017.4 |
| 20260831202603 | 77 | 239 | 1.0 | 2.0 | 0.00 | 0.37 | 0.00 | 47 | 1017.4 |
| 20260831202103 | 77 | 285 | 0.0 | 2.0 | 0.00 | 0.37 | 0.00 | 47 | 1017.4 |
| 20260831201603 | 77 | 5 | 1.0 | 3.0 | 0.00 | 0.37 | 0.00 | 46 | 1017.2 |
| 20260831201103 | 76 | 28 | 1.0 | 2.0 | 0.00 | 0.37 | 0.00 | 48 | 1017.4 |
| 20260831195603 | 74 | 244 | 0.0 | 2.0 | 0.00 | 0.37 | 0.00 | 60 | 1017.5 |
| 20260831195102 | 73 | 130 | 1.0 | 2.0 | 0.00 | 0.37 | 0.00 | 54 | 1017.5 |
| 20260831194103 | 74 | 229 | 1.0 | 2.0 | 0.00 | 0.37 | 0.00 | 59 | 1017.5 |
| 20260831193103 | 74 | 185 | 0.0 | 1.0 | 0.00 | 0.37 | 0.00 | 55 | 1017.7 |
| 20260831192603 | 75 | 337 | 1.0 | 3.0 | 0.00 | 0.37 | 0.00 | 52 | 1018.0 |
| 20260831192102 | 74 | 109 | 1.0 | 2.0 | 0.00 | 0.37 | 0.00 | 52 | 1018.0 |
| 20260831191103 | 74 | 218 | 0.0 | 3.0 | 0.00 | 0.37 | 0.00 | 59 | 1017.9 |
| 20260831190603 | 74 | 266 | 1.0 | 2.0 | 0.00 | 0.37 | 0.00 | 59 | 1018.0 |
| 20260831185603 | 74 | 208 | 1.0 | 1.0 | 0.00 | 0.37 | 0.00 | 54 | 1018.0 |
| 20260831185102 | 74 | 135 | 1.0 | 2.0 | 0.00 | 0.37 | 0.00 | 54 | 1018.0 |
| 20260831184603 | 75 | 342 | 0.0 | 2.0 | 0.00 | 0.37 | 0.00 | 56 | 1018.0 |
| 20260831184103 | 75 | 209 | 1.0 | 2.0 | 0.00 | 0.37 | 0.00 | 54 | 1018.1 |
| 20260831183603 | 75 | 107 | 1.0 | 2.0 | 0.00 | 0.37 | 0.00 | 54 | 1018.1 |
| 20260831182602 | 74 | 239 | 1.0 | 3.0 | 0.00 | 0.37 | 0.00 | 54 | 1018.4 |
| 20260831182103 | 75 | 49 | 1.0 | 2.0 | 0.00 | 0.37 | 0.00 | 56 | 1018.5 |
| 20260831181103 | 74 | 14 | 1.0 | 2.0 | 0.00 | 0.37 | 0.00 | 52 | 1018.5 |
| 20260831180603 | 75 | 101 | 1.0 | 3.0 | 0.00 | 0.37 | 0.00 | 54 | 1018.5 |
| 20260831175603 | 74 | 208 | 1.0 | 3.0 | 0.00 | 0.37 | 0.00 | 56 | 1018.5 |
| 20260831175103 | 74 | 125 | 1.0 | 5.0 | 0.00 | 0.37 | 0.00 | 54 | 1018.5 |
| 20260831174603 | 74 | 229 | 1.0 | 3.0 | 0.00 | 0.37 | 0.00 | 57 | 1018.5 |
| 20260831174103 | 74 | 55 | 1.0 | 3.0 | 0.00 | 0.37 | 0.00 | 51 | 1018.5 |
| 20260831173603 | 74 | 219 | 1.0 | 2.0 | 0.00 | 0.37 | 0.00 | 53 | 1018.6 |
| 20260831173102 | 74 | 345 | 1.0 | 2.0 | 0.00 | 0.37 | 0.00 | 53 | 1018.6 |
| 20260831172603 | 73 | 248 | 1.0 | 2.0 | 0.00 | 0.37 | 0.00 | 60 | 1018.7 |
| 20260831172102 | 74 | 213 | 1.0 | 2.0 | 0.00 | 0.37 | 0.00 | 57 | 1018.6 |
| 20260831171102 | 74 | 295 | 1.0 | 2.0 | 0.00 | 0.37 | 0.00 | 54 | 1018.6 |
| 20260831170603 | 74 | 153 | 1.0 | 3.0 | 0.00 | 0.37 | 0.00 | 56 | 1018.6 |
| 20260831165602 | 74 | 264 | 1.0 | 2.0 | 0.00 | 0.37 | 0.00 | 64 | 1019.0 |
| 20260831165102 | 74 | 137 | 1.0 | 3.0 | 0.00 | 0.37 | 0.00 | 57 | 1019.0 |
| 20260831164603 | 75 | 65 | 0.0 | 1.0 | 0.00 | 0.37 | 0.00 | 60 | 1019.0 |
| 20260831163602 | 73 | 209 | 1.0 | 2.0 | 0.00 | 0.37 | 0.00 | 64 | 1019.0 |
| 20260831163102 | 73 | 95 | 0.0 | 1.0 | 0.00 | 0.37 | 0.00 | 61 | 1019.1 |
| 20260831162602 | 73 | 197 | 1.0 | 2.0 | 0.00 | 0.37 | 0.00 | 59 | 1019.0 |
| 20260831162102 | 73 | 207 | 1.0 | 2.0 | 0.00 | 0.37 | 0.00 | 57 | 1019.0 |
| 20260831161603 | 74 | 201 | 1.0 | 2.0 | 0.00 | 0.37 | 0.00 | 57 | 1019.2 |
| 20260831161102 | 73 | 132 | 1.0 | 2.0 | 0.00 | 0.37 | 0.00 | 58 | 1019.4 |
| 20260831160603 | 73 | 245 | 1.0 | 1.0 | 0.00 | 0.37 | 0.00 | 60 | 1019.2 |
| 20260831155103 | 74 | 180 | 0.0 | 2.0 | 0.00 | 0.37 | 0.00 | 57 | 1019.4 |
| 20260831154602 | 74 | 16 | 1.0 | 2.0 | 0.00 | 0.37 | 0.00 | 53 | 1019.5 |
| 20260831154103 | 74 | 84 | 1.0 | 2.0 | 0.00 | 0.37 | 0.00 | 52 | 1019.4 |
| 20260831153602 | 74 | 256 | 1.0 | 3.0 | 0.00 | 0.37 | 0.00 | 54 | 1019.4 |
| 20260831153103 | 73 | 189 | 1.0 | 2.0 | 0.00 | 0.37 | 0.00 | 59 | 1019.5 |
| 20260831152602 | 74 | 133 | 1.0 | 3.0 | 0.00 | 0.37 | 0.00 | 53 | 1019.5 |
| 20260831152102 | 72 | 72 | 3.0 | 5.0 | 0.00 | 0.37 | 0.00 | 58 | 1019.5 |
| 20260831151602 | 72 | 118 | 2.0 | 6.0 | 0.00 | 0.37 | 0.00 | 53 | 1019.5 |
| 20260831151102 | 73 | 257 | 2.0 | 6.0 | 0.00 | 0.37 | 0.00 | 52 | 1019.6 |
| 20260831150602 | 72 | 38 | 1.0 | 5.0 | 0.00 | 0.37 | 0.00 | 54 | 1019.5 |
| 20260831145602 | 73 | 189 | 1.0 | 2.0 | 0.00 | 0.37 | 0.00 | 52 | 1019.5 |
| 20260831145102 | 73 | 359 | 1.0 | 3.0 | 0.00 | 0.37 | 0.00 | 56 | 1019.6 |
| 20260831144602 | 73 | 242 | 2.0 | 5.0 | 0.00 | 0.37 | 0.00 | 63 | 1019.6 |
| 20260831143103 | 72 | 350 | 1.0 | 3.0 | 0.00 | 0.37 | 0.00 | 61 | 1019.6 |
| 20260831142602 | 72 | 222 | 1.0 | 2.0 | 0.00 | 0.37 | 0.00 | 65 | 1019.6 |
| 20260831142102 | 71 | 199 | 1.0 | 3.0 | 0.00 | 0.37 | 0.00 | 62 | 1019.5 |
| 20260831141602 | 70 | 0 | 2.0 | 6.0 | 0.00 | 0.37 | 0.00 | 65 | 1019.5 |
| 20260831141102 | 71 | 189 | 1.0 | 2.0 | 0.00 | 0.37 | 0.00 | 63 | 1019.4 |
| 20260831135602 | 70 | 93 | 1.0 | 3.0 | 0.00 | 0.37 | 0.00 | 70 | 1019.5 |
| 20260831134602 | 69 | 286 | 1.0 | 3.0 | 0.00 | 0.37 | 0.00 | 71 | 1019.5 |
| 20260831134102 | 70 | 87 | 1.0 | 5.0 | 0.00 | 0.37 | 0.00 | 71 | 1019.4 |
| 20260831133602 | 69 | 273 | 2.0 | 3.0 | 0.00 | 0.37 | 0.00 | 72 | 1019.5 |
| 20260831133102 | 69 | 358 | 2.0 | 3.0 | 0.00 | 0.37 | 0.00 | 74 | 1019.4 |
| 20260831132602 | 68 | 78 | 1.0 | 3.0 | 0.00 | 0.37 | 0.00 | 73 | 1019.2 |
| 20260831131602 | 68 | 259 | 0.0 | 1.0 | 0.00 | 0.37 | 0.00 | 75 | 1019.3 |
| 20260831131102 | 68 | 232 | 2.0 | 5.0 | 0.00 | 0.37 | 0.00 | 78 | 1019.2 |
| 20260831130602 | 67 | 52 | 1.0 | 5.0 | 0.00 | 0.37 | 0.00 | 78 | 1019.4 |
| 20260831130101 | 66 | 271 | 2.0 | 5.0 | 0.00 | 0.37 | 0.00 | 80 | 1019.2 |
| 20260831125602 | 66 | 8 | 2.0 | 5.0 | 0.00 | 0.37 | 0.00 | 80 | 1019.4 |
| 20260831124601 | 66 | 53 | 2.0 | 5.0 | 0.00 | 0.37 | 0.00 | 81 | 1019.4 |
| 20260831124102 | 65 | 16 | 2.0 | 5.0 | 0.00 | 0.37 | 0.00 | 83 | 1019.3 |
| 20260831123602 | 65 | 48 | 2.0 | 7.0 | 0.00 | 0.37 | 0.00 | 85 | 1019.3 |
| 20260831123102 | 64 | 40 | 1.0 | 2.0 | 0.00 | 0.37 | 0.00 | 89 | 1019.2 |
| 20260831122602 | 64 | 10 | 1.0 | 2.0 | 0.00 | 0.37 | 0.00 | 89 | 1019.1 |
| 20260831122102 | 63 | 359 | 1.0 | 3.0 | 0.00 | 0.37 | 0.00 | 88 | 1019.1 |
| 20260831121601 | 63 | 355 | 2.0 | 5.0 | 0.00 | 0.37 | 0.00 | 89 | 1019.0 |
| 20260831121101 | 63 | 22 | 1.0 | 5.0 | 0.00 | 0.37 | 0.00 | 89 | 1019.0 |
| 20260831120602 | 63 | 52 | 1.0 | 5.0 | 0.00 | 0.37 | 0.00 | 89 | 1019.0 |
| 20260831115601 | 63 | 51 | 1.0 | 3.0 | 0.00 | 0.37 | 0.00 | 91 | 1018.9 |
| 20260831115102 | 62 | 197 | 2.0 | 6.0 | 0.00 | 0.37 | 0.00 | 91 | 1018.9 |
| 20260831114602 | 62 | 5 | 1.0 | 3.0 | 0.00 | 0.37 | 0.00 | 93 | 1018.9 |
| 20260831114102 | 62 | 25 | 0.0 | 2.0 | 0.00 | 0.37 | 0.00 | 93 | 1018.9 |
| 20260831113601 | 62 | 99 | 0.0 | 3.0 | 0.00 | 0.37 | 0.00 | 94 | 1018.7 |
| 20260831113102 | 62 | 73 | 1.0 | 2.0 | 0.00 | 0.37 | 0.00 | 95 | 1018.8 |
| 20260831112601 | 62 | 8 | 0.0 | 2.0 | 0.00 | 0.37 | 0.00 | 96 | 1018.8 |
| 20260831112102 | 61 | 328 | 0.0 | 1.0 | 0.00 | 0.37 | 0.00 | 98 | 1018.7 |
| 20260831111601 | 61 | 3 | 0.0 | 2.0 | 0.00 | 0.37 | 0.00 | 99 | 1018.5 |
| 20260831110602 | 61 | 34 | 1.0 | 2.0 | 0.00 | 0.37 | 0.00 | 99 | 1018.5 |
| 20260831105601 | 61 | 224 | 0.0 | 1.0 | 0.00 | 0.37 | 0.00 | 100 | 1018.5 |
| 20260831105102 | 60 | 27 | 0.0 | 1.0 | 0.00 | 0.37 | 0.00 | 99 | 1018.4 |
| 20260831104601 | 60 | 67 | 0.0 | 1.0 | 0.00 | 0.37 | 0.00 | 99 | 1018.4 |
| 20260831104101 | 60 | 45 | 0.0 | 1.0 | 0.00 | 0.37 | 0.00 | 99 | 1018.2 |
| 20260831103101 | 60 | 268 | 1.0 | 3.0 | 0.00 | 0.37 | 0.00 | 99 | 1018.1 |
| 20260831102602 | 60 | 321 | 1.0 | 3.0 | 0.00 | 0.37 | 0.00 | 100 | 1018.0 |
| 20260831101602 | 60 | 274 | 2.0 | 5.0 | 0.00 | 0.37 | 0.00 | 100 | 1018.0 |
| 20260831101102 | 60 | 260 | 2.0 | 5.0 | 0.00 | 0.37 | 0.00 | 100 | 1018.0 |
| 20260831100601 | 61 | 263 | 1.0 | 2.0 | 0.00 | 0.37 | 0.00 | 100 | 1017.8 |
| 20260831095601 | 61 | 238 | 1.0 | 2.0 | 0.00 | 0.37 | 0.00 | 100 | 1017.8 |
| 20260831095101 | 61 | 263 | 1.0 | 2.0 | 0.00 | 0.37 | 0.00 | 100 | 1017.7 |
| 20260831094601 | 61 | 302 | 1.0 | 2.0 | 0.00 | 0.37 | 0.00 | 100 | 1017.7 |
| 20260831094101 | 61 | 246 | 1.0 | 2.0 | 0.00 | 0.37 | 0.00 | 100 | 1017.6 |
| 20260831093602 | 61 | 268 | 1.0 | 2.0 | 0.00 | 0.37 | 0.00 | 100 | 1017.5 |
| 20260831093101 | 61 | 262 | 1.0 | 2.0 | 0.00 | 0.37 | 0.00 | 100 | 1017.5 |
| 20260831092601 | 61 | 240 | 1.0 | 2.0 | 0.00 | 0.37 | 0.00 | 100 | 1017.5 |
| 20260831092101 | 61 | 263 | 1.0 | 2.0 | 0.00 | 0.37 | 0.00 | 100 | 1017.4 |
| 20260831091601 | 61 | 269 | 0.0 | 2.0 | 0.00 | 0.37 | 0.00 | 100 | 1017.4 |
| 20260831091101 | 61 | 242 | 1.0 | 5.0 | 0.00 | 0.37 | 0.00 | 100 | 1017.3 |
| 20260831090601 | 61 | 261 | 1.0 | 2.0 | 0.00 | 0.37 | 0.00 | 100 | 1017.2 |
| 20260831085601 | 62 | 254 | 1.0 | 3.0 | 0.00 | 0.37 | 0.00 | 100 | 1017.2 |